Regional Weather Roundup
Issued by NWS

Home | Current Version | Previous Version | Graphics & Text | Print | Product List | Glossary On
Versions: 1 2 3 4 5 6 7 8 9 10 11 12 13 14 15 16 17 18 19 20 21 22 23 24 25 26 27
000
ASUS45 KBOU 281607
RWRCO

WEATHER ROUNDUP FOR COLORADO
NATIONAL WEATHER SERVICE DENVER/BOULDER CO
1000 AM MDT FRI APR 28 2017

NOTE: "FAIR" INDICATES FEW OR NO CLOUDS BELOW 12000 FEET WITH NO
SIGNIFICANT WEATHER AND/OR OBSTRUCTIONS TO VISIBILITY.

COZ001>005-013-030-031-281700-
...NORTHWEST COLORADO...

CITY           SKY/WX    TMP DP  RH WIND       PRES   REMARKS
CRAIG          PTSUNNY   37  22  54 W9        29.75F
HAYDEN         PTSUNNY   30  21  69 CALM      29.75F
MEEKER         CLOUDY    35  29  78 N3        29.75F
MOUNT WERNER   NOT AVBL
STEAMBOAT SPGS PTSUNNY   31  21  65 SW3       29.74F
WALDEN           N/A     30  18  59 S7        29.73S WCI  23
$$

COZ006>008-011-281700-
...WEST CENTRAL VALLEYS...

CITY           SKY/WX    TMP DP  RH WIND       PRES   REMARKS
GRAND JUNCTION FAIR      46  19  34 W8        29.75F
MONTROSE       FAIR      41  13  31 N6        29.76F
EAGLE          MOSUNNY   37  18  44 NW5       29.75F
RIFLE          FAIR      40  24  53 VRB5      29.74F
DELTA          FAIR      46  14  27 W13G21    29.75S
NUCLA          FAIR      43  12  28 N3        29.78F
$$

COZ017>023-064>068-281700-
...SOUTHWEST COLORADO...

CITY           SKY/WX    TMP DP  RH WIND       PRES   REMARKS
DURANGO        FAIR      37  27  67 SW14      29.74S
CORTEZ         FAIR      42  18  37 E5        29.75F
PAGOSA SPRINGS PTSUNNY   35  24  63 SW8       29.75F WCI  28
TELLURIDE      FAIR      31  13  46 N3        29.73F
WOLF CREEK PAS CLOUDY    18  12  79 S14G20    29.77S WCI   4
$$

COZ009-010-012-014-032>034-037-058>063-281700-
...CENTRAL COLORADO...

CITY           SKY/WX    TMP DP  RH WIND       PRES   REMARKS
ASPEN          PTSUNNY   29  21  72 N8        29.71F HAZE    WCI  21
BUENA VISTA    PTSUNNY   35   9  33 NW5       29.69F WCI  31
COPPER MTN     LGT SNOW  18  10  73 NW7       29.68F WCI   8
BERTHOUD PASS  CLOUDY    10   0  61 N6G21     29.67S WCI   1
COTTONWOOD PAS FAIR      32   9  37 SW7       29.69F WCI  26
GUNNISON       FAIR      35  14  42 SW9       29.72F WCI  28
KREMMLING      CLOUDY    41  19  42 CALM      29.73F
LEADVILLE      LGT SNOW  22  14  71 N6        29.68F WCI  14
MONARCH PASS   CLOUDY    14  10  85 SW24G32   29.80R WCI  -5
SALIDA         FAIR      42  13  30 SW15G21   29.78S
SUNLIGHT       PTSUNNY  N/A N/A N/A MISG      29.75S
WILKERSON PASS FAIR      23   3  42 SW3       29.71S
$$

COZ069>075-281700-
...SAN LUIS VALLEY/SANGRE DE CRISTO MOUNTAINS...

CITY           SKY/WX    TMP DP  RH WIND       PRES   REMARKS
ALAMOSA        FAIR      38  19  46 S7        29.70F
LA VETA PASS   CLOUDY    28  18  64 SW7G22    29.84S WCI  21
SAGUACHE       FAIR      37  10  32 SW5       29.71R
$$

COZ035-036-038>040-281700-
...NORTHERN COLORADO FRONT RANGE...

CITY           SKY/WX    TMP DP  RH WIND       PRES   REMARKS
DENVER INTL AP FAIR      49  14  24 N9        29.66S
DMNS CITY PARK   N/A     50  13  22 NE5G14    29.65S
AURORA         MOSUNNY   46  12  25 E3        29.66S
FRONT RANGE AP MOSUNNY   48  18  29 NE6       29.67S
ERIE MUNI ARPT FAIR      47  26  43 CALM      29.66S
BOULDER MUN AP FAIR      48  25  40 NE5G10    29.65S
CENTENNIAL     FAIR      46  10  23 NW9G16    29.65F
BROOMFIELD     MOSUNNY   48   9  20 NW7       29.65F
FORT COLLINS   FAIR      47  31  53 S6        29.67S
LONGMONT       FAIR      51  32  47 NE10      29.67F HAZE
$$

COZ041-046-047-076>085-087-088-281700-
...PIKES PEAK/PALMER DIVIDE AND SOUTHERN FOOTHILLS...

CITY           SKY/WX    TMP DP  RH WIND       PRES   REMARKS
COLO. SPRINGS  FAIR      48   4  16 VRB5      29.66F
A. F. ACADEMY  FAIR      45   7  21 W16       29.65F
SCHRIEVER AFB  FAIR      46  11  24 E6        29.67S
ELLICOTT       FAIR     N/A N/A N/A N6        29.66S
FALCON         FAIR      44   7  22 W9G22     29.68S
FORT CARSON    FAIR      49  15  25 NE10      29.64F
LIMON          FAIR      49  20  31 N10       29.67F
MONUMENT HILL  FAIR      37  16  41 NW6       29.69S
TRINIDAD       FAIR      51  24  34 SE10      29.66F
$$

COZ042>045-048>051-090-091-281700-
...NORTHEAST COLORADO...

CITY           SKY/WX    TMP DP  RH WIND       PRES   REMARKS
GREELEY ARPT   FAIR      47  28  47 N7        29.68S
AKRON          FAIR      47  32  56 N17       29.68R
BURLINGTON     NOT AVBL
WRAY           NOT AVBL
STERLING       CLOUDY    41  36  81 NE12      29.69R
HOLYOKE        DRIZZLE   37  36  93 E10       29.73R
FORT MORGAN    FAIR      51  26  38 NW12G18   29.68S
$$

COZ086-089-092>099-281700-
...SOUTHEAST COLORADO...

CITY           SKY/WX    TMP DP  RH WIND       PRES   REMARKS
PUEBLO         FAIR      53  19  26 W8        29.64F
LA JUNTA       FAIR      51  32  48 VRB6      29.67F
LAMAR          FAIR      52  43  71 E5        29.66S
SPRINGFIELD      N/A     55  32  41 VRB5      29.66F
$$




USA.gov is the U.S. government's official web portal to all federal, state and local government web resources and services.